Weather History for Block Island, RI

Change the Weather History Date:

Saturday, December 28, 2013

  Actual Average Record
Temperature  
Mean Temperature 42 °F -  
Max Temperature 48 °F 40 °F 56 °F (1982)
Min Temperature 35 °F 28 °F 9 °F (1952)
Degree Days  
Heating Degree Days 24    
Moisture  
Dew Point 32 °F    
Average Humidity 64    
Maximum Humidity 76    
Minimum Humidity 50    
Precipitation  
Precipitation 0.00 in - - ()
Sea Level Pressure  
Sea Level Pressure 30.14 in    
Wind  
Wind Speed 15 mph (WSW)    
Max Wind Speed 28 mph    
Max Gust Speed 36 mph    
Visibility 10 miles    
Events      
Averages and records for this station are not official NWS values.
T = Trace of Precipitation, MM = Missing Value Source: NWS Daily Summary

Daily Weather History Graph

Daily Weather History Graph

Search for Another Location

Airport:

Trip Planner

Search our weather history database for the weather conditions in past years. The results will help you decide how hot, cold, wet, or windy it might be!

Date:

Astronomy

Dec. 28, 2013 Rise Set
Actual Time 7:11 AM EST 4:25 PM EST
Civil Twilight 6:39 AM EST 4:56 PM EST
Nautical Twilight 6:05 AM EST 5:31 PM EST
Astronomical Twilight 5:31 AM EST 6:04 PM EST
Moon 2:43 AM EST (12/28) 1:14 PM EST (12/28)
Length of Visible Light 10h 16m
Length of Day
9h 14m
Waning Crescent, 19% of the Moon is Illuminated
Dec 28
Waning Crescent
Jan 1
New
Jan 7
First Quarter
Jan 15
Full
Jan 24
Last Quarter

Hourly Weather History & Observations

Time (EST) Temp. Windchill Dew Point Humidity Pressure Visibility Wind Dir Wind Speed Gust Speed Precip Events Conditions
12:15 AM 37.4 °F 30.3 °F 21.2 °F 52% 30.25 in 10.0 mi West 10.4 mph - N/A   Clear
12:35 AM 37.4 °F 29.8 °F 23.0 °F 56% 30.25 in 10.0 mi West 11.5 mph - N/A   Clear
12:55 AM 37.4 °F 29.3 °F 23.0 °F 56% 30.25 in 10.0 mi West 12.7 mph 16.1 mph N/A   Clear
1:15 AM 37.4 °F 28.9 °F 23.0 °F 56% 30.25 in 10.0 mi West 13.8 mph 18.4 mph N/A   Clear
1:35 AM 37.4 °F 29.8 °F 24.8 °F 60% 30.24 in 10.0 mi West 11.5 mph - N/A   Partly Cloudy
1:55 AM 37.4 °F 29.3 °F 24.8 °F 60% 30.24 in 10.0 mi WSW 12.7 mph - N/A   Clear
2:15 AM 35.6 °F 26.6 °F 24.8 °F 65% 30.24 in 10.0 mi WSW 13.8 mph - N/A   Clear
2:35 AM 37.4 °F 30.3 °F 26.6 °F 65% 30.24 in 10.0 mi West 10.4 mph 17.3 mph N/A   Clear
2:55 AM 37.4 °F 29.8 °F 26.6 °F 65% 30.24 in 10.0 mi West 11.5 mph 16.1 mph N/A   Clear
3:15 AM 37.4 °F 29.3 °F 26.6 °F 65% 30.23 in 10.0 mi West 12.7 mph 17.3 mph N/A   Clear
3:35 AM 37.4 °F 29.8 °F 24.8 °F 60% 30.23 in 10.0 mi West 11.5 mph 18.4 mph N/A   Clear
3:55 AM 37.4 °F 29.8 °F 26.6 °F 65% 30.23 in 10.0 mi WSW 11.5 mph - N/A   Clear
4:15 AM 37.4 °F 29.8 °F 26.6 °F 65% 30.23 in 10.0 mi WSW 11.5 mph - N/A   Clear
4:35 AM 37.4 °F 30.3 °F 26.6 °F 65% 30.23 in 10.0 mi WSW 10.4 mph - N/A   Clear
4:55 AM 35.6 °F 28.6 °F 26.6 °F 70% 30.22 in 10.0 mi WSW 9.2 mph - N/A   Clear
5:15 AM 35.6 °F 28.0 °F 26.6 °F 70% 30.22 in 10.0 mi WSW 10.4 mph - N/A   Clear
5:35 AM 37.4 °F 28.9 °F 24.8 °F 60% 30.22 in 10.0 mi WSW 13.8 mph 19.6 mph N/A   Clear
5:55 AM 37.4 °F 28.9 °F 26.6 °F 65% 30.22 in 10.0 mi WSW 13.8 mph - N/A   Clear
6:15 AM 37.4 °F 29.3 °F 28.4 °F 70% 30.20 in 10.0 mi WSW 12.7 mph - N/A   Clear
6:35 AM 39.2 °F 31.2 °F 28.4 °F 65% 30.19 in 10.0 mi WSW 13.8 mph 17.3 mph N/A   Clear
6:55 AM 39.2 °F 32.0 °F 28.4 °F 65% 30.19 in 10.0 mi WSW 11.5 mph 17.3 mph N/A   Clear
7:15 AM 39.2 °F 30.2 °F 30.2 °F 70% 30.18 in 10.0 mi SW 17.3 mph 20.7 mph N/A   Clear
7:35 AM 42.8 °F 34.5 °F 30.2 °F 61% 30.19 in 10.0 mi SW 18.4 mph 26.5 mph N/A   Clear
7:55 AM 42.8 °F 34.3 °F 30.2 °F 61% 30.19 in 10.0 mi SW 19.6 mph 28.8 mph N/A   Clear
8:15 AM 44.6 °F 36.6 °F 30.2 °F 57% 30.19 in 10.0 mi WSW 19.6 mph 25.3 mph N/A   Clear
8:35 AM 44.6 °F 36.6 °F 30.2 °F 57% 30.20 in 10.0 mi SW 19.6 mph 25.3 mph N/A   Clear
8:55 AM 46.4 °F 39.2 °F 30.2 °F 53% 30.19 in 10.0 mi WSW 18.4 mph 24.2 mph N/A   Clear
9:15 AM 46.4 °F 38.5 °F 30.2 °F 53% 30.19 in 10.0 mi WSW 21.9 mph 27.6 mph N/A   Clear
9:35 AM 46.4 °F 39.0 °F 30.2 °F 53% 30.19 in 10.0 mi SW 19.6 mph 27.6 mph N/A   Clear
9:55 AM 46.4 °F 38.3 °F 30.2 °F 53% 30.18 in 10.0 mi SW 23.0 mph 28.8 mph N/A   Clear
10:15 AM 46.4 °F 38.5 °F 28.4 °F 50% 30.18 in 10.0 mi WSW 21.9 mph 33.4 mph N/A   Clear
10:35 AM 46.4 °F 39.0 °F 32.0 °F 57% 30.18 in 10.0 mi WSW 19.6 mph 28.8 mph N/A   Clear
10:55 AM 46.4 °F 38.5 °F 33.8 °F 62% 30.15 in 10.0 mi WSW 21.9 mph 31.1 mph N/A   Clear
11:15 AM 46.4 °F 38.7 °F 33.8 °F 62% 30.14 in 10.0 mi WSW 20.7 mph 31.1 mph N/A   Clear
11:35 AM 48.2 °F - 35.6 °F 62% 30.13 in 10.0 mi WSW 21.9 mph 32.2 mph N/A   Clear
11:55 AM 48.2 °F - 33.8 °F 58% 30.12 in 10.0 mi WSW 24.2 mph 31.1 mph N/A   Clear
12:15 PM 46.4 °F 38.3 °F 33.8 °F 62% 30.10 in 10.0 mi WSW 23.0 mph 32.2 mph N/A   Mostly Cloudy
12:35 PM 46.4 °F 37.5 °F 33.8 °F 62% 30.09 in 10.0 mi WSW 27.6 mph 35.7 mph N/A   Overcast
12:55 PM 48.2 °F - 33.8 °F 58% 30.08 in 10.0 mi WSW 24.2 mph 31.1 mph N/A   Overcast
1:15 PM 46.4 °F 38.5 °F 33.8 °F 62% 30.07 in 10.0 mi WSW 21.9 mph 32.2 mph N/A   Mostly Cloudy
1:35 PM 48.2 °F - 33.8 °F 58% 30.07 in 10.0 mi WSW 25.3 mph 34.5 mph N/A   Partly Cloudy
1:55 PM 48.2 °F - 33.8 °F 58% 30.06 in 10.0 mi SW 18.4 mph 31.1 mph N/A   Clear
2:15 PM 48.2 °F - 33.8 °F 58% 30.05 in 10.0 mi WSW 20.7 mph 32.2 mph N/A   Clear
2:35 PM 48.2 °F - 33.8 °F 58% 30.05 in 10.0 mi WSW 24.2 mph 29.9 mph N/A   Clear
2:55 PM 46.4 °F 38.3 °F 33.8 °F 62% 30.05 in 10.0 mi WSW 23.0 mph 29.9 mph N/A   Clear
3:15 PM 46.4 °F 38.3 °F 33.8 °F 62% 30.05 in 10.0 mi WSW 23.0 mph 28.8 mph N/A   Clear
3:35 PM 46.4 °F 38.3 °F 33.8 °F 62% 30.05 in 10.0 mi WSW 23.0 mph 29.9 mph N/A   Clear
3:55 PM 46.4 °F 38.5 °F 33.8 °F 62% 30.05 in 10.0 mi WSW 21.9 mph 31.1 mph N/A   Clear
4:15 PM 46.4 °F 39.2 °F 33.8 °F 62% 30.07 in 10.0 mi WSW 18.4 mph 25.3 mph N/A   Clear
4:35 PM 44.6 °F 37.2 °F 33.8 °F 66% 30.06 in 10.0 mi WSW 17.3 mph 21.9 mph N/A   Clear
4:55 PM 44.6 °F 37.4 °F 35.6 °F 71% 30.06 in 10.0 mi WSW 16.1 mph 20.7 mph N/A   Clear
5:15 PM 44.6 °F 37.2 °F 35.6 °F 71% 30.07 in 10.0 mi WSW 17.3 mph 23.0 mph N/A   Clear
5:35 PM 44.6 °F 38.4 °F 35.6 °F 71% 30.08 in 10.0 mi WSW 12.7 mph - N/A   Clear
5:55 PM 44.6 °F 39.7 °F 35.6 °F 71% 30.09 in 10.0 mi WSW 9.2 mph - N/A   Clear
6:15 PM 44.6 °F 39.7 °F 35.6 °F 71% 30.11 in 10.0 mi WSW 9.2 mph - N/A   Clear
6:35 PM 44.6 °F 38.8 °F 35.6 °F 71% 30.10 in 10.0 mi WSW 11.5 mph - N/A   Clear
6:55 PM 44.6 °F 38.8 °F 35.6 °F 71% 30.11 in 10.0 mi WSW 11.5 mph - N/A   Clear
7:15 PM 44.6 °F 39.2 °F 35.6 °F 71% 30.11 in 10.0 mi WSW 10.4 mph - N/A   Clear
7:35 PM 44.6 °F 39.2 °F 35.6 °F 71% 30.11 in 10.0 mi WSW 10.4 mph - N/A   Clear
7:55 PM 44.6 °F 38.4 °F 37.4 °F 76% 30.11 in 10.0 mi WSW 12.7 mph - N/A   Clear
8:15 PM 44.6 °F 38.4 °F 37.4 °F 76% 30.11 in 10.0 mi WSW 12.7 mph - N/A   Clear
8:35 PM 44.6 °F 38.8 °F 37.4 °F 76% 30.10 in 10.0 mi WSW 11.5 mph - N/A   Clear
8:55 PM 44.6 °F 38.4 °F 35.6 °F 71% 30.09 in 10.0 mi WSW 12.7 mph - N/A   Clear
9:15 PM 44.6 °F 38.4 °F 35.6 °F 71% 30.10 in 10.0 mi WSW 12.7 mph - N/A   Clear
9:35 PM 44.6 °F 38.4 °F 35.6 °F 71% 30.09 in 10.0 mi WSW 12.7 mph - N/A   Clear
9:55 PM 44.6 °F 37.8 °F 35.6 °F 71% 30.09 in 10.0 mi WSW 15.0 mph - N/A   Clear
10:15 PM 44.6 °F 38.1 °F 35.6 °F 71% 30.09 in 10.0 mi WSW 13.8 mph - N/A   Clear
10:35 PM 44.6 °F 37.2 °F 35.6 °F 71% 30.08 in 10.0 mi WSW 17.3 mph 21.9 mph N/A   Clear
10:55 PM 44.6 °F 37.4 °F 37.4 °F 76% 30.08 in 10.0 mi WSW 16.1 mph - N/A   Clear
11:15 PM 44.6 °F 37.2 °F 35.6 °F 71% 30.08 in 10.0 mi WSW 17.3 mph 23.0 mph N/A   Clear
11:35 PM 44.6 °F 37.8 °F 35.6 °F 71% 30.06 in 10.0 mi WSW 15.0 mph 23.0 mph N/A   Clear
11:55 PM 44.6 °F 38.4 °F 35.6 °F 71% 30.06 in 10.0 mi WSW 12.7 mph - N/A   Clear